www.pogodaiklimat.ru

Погода и климат >> Архив погоды >> Германия >> Эмден


ПОГОДА в Эмдене

  • Прогноз погоды в Эмдене
  • Монитор погоды в Эмдене

АРХИВ ПОГОДЫ в Эмдене

Время (UTC), дата Ветер
(напр.,м/с)
 
Видим.   Явления Облачность Т
(С)
Тd
(С)
f
(%)
Тe
(С)
Тes
(С)
Комфортность P
(гПа)
Po
(гПа)
Тmin
(С)
Tmax
(С)
R
(мм)
R24
(мм)
S
(см)
13 18.06 СЗ 3 >70 км 6/6 1500 м
[]
+25.9 +14.9 51 +29 +34 душно 1014.2 1014.4
14 18.06 СЗ 5 50 км 10/0
[]
+25.2 +12.2 44 +27 +30 жарко 1013.9 1014.1
15 18.06 СЗ 4 50 км 10/0
[]
+24.7 +14.6 53 +27 +30 жарко 1013.7 1013.9
16 18.06 С 5 55 км 10/0
[]
+23.7 +15.2 59 +27 +28 жарко 1013.4 1013.6
17 18.06 С 4 60 км 5/0
[]
+22.7 +14.9 61 +26 +28 жарко 1013.2 1013.4
18 18.06 С 4 45 км {осадки} 8/0
[]
+21.3 +15.3 69 +24 +25 комфорт 1013.2 1013.4 +18.3 +26.3 0.0
19 18.06 С 3-4
{6}
40 км {осадки} ясно +19.2 +13.9 71 +21 +21 комфорт 1013.3 1013.5
20 18.06 С 3-4
{5}
26 км ясно +16.9 +13.6 81 +17 +17 1013.4 1013.6
21 18.06 СВ 2 22 км 10/0
[]
+16.5 +13.6 83 +17 +17 1013.3 1013.5
22 18.06 СВ 1 22 км 10/0
[]
+16.2 +13.6 85 +17 +17 1012.8 1013.0
23 18.06 С 2 23 км 10/0
[]
+15.6 +12.8 83 +15 +15 1012.2 1012.4
00 19.06 СВ 2 21 км 10/0
[]
+15.4 +12.8 84 +15 +15 1011.5 1011.7
01 19.06 СВ 2 35 км 10/0 2000 м
[]
+15.6 +12.5 82 +15 +15 1010.6 1010.8
02 19.06 СВ 2 30 км 9/0 2000 м
[]
+15.6 +13.0 85 +15 +15 1010.2 1010.4
03 19.06 СВ 2 24 км 10/0 2000 м
[]
+15.5 +13.4 87 +15 +15 1009.4 1009.6
04 19.06 СВ 1-2
{2}
14 км 3/0
[]
+15.4 +13.9 91 +16 +16 1008.8 1009.0
05 19.06 СВ 1-2
{2}
15 км ясно +16.6 +14.5 87 +17 +19 1008.3 1008.5
06 19.06 В 2 16 км ясно +19.0 +16.2 84 +21 +24 комфорт 1008.0 1008.2 +14.6 +21.2
07 19.06 ЮВ 3-4
{4}
18 км ясно +21.0 +17.0 78 +25 +30 комфорт 1007.5 1007.7
08 19.06 Ю 2-3
{4}
21 км ясно +22.9 +16.9 69 +28 +37 душно 1007.1 1007.3
09 19.06 ЮВ 1 24 км 9/0
[]
+24.6 +17.5 65 +29 +37 душно 1006.7 1006.9
10 19.06 ЮЗ 3 20 км 9/0
[]
+24.5 +18.1 68 +29 +36 душно 1007.1 1007.3
11 19.06 ЮЗ 5 12 км в посл. час дождь 9/9 1300 м
[]
+22.1 +18.7 81 +27 +28 душно 1008.3 1008.5
12 19.06 Ю 3 >70 км в посл. час дождь 10/0
[]
+24.0 +13.2 51 +26 +33 жарко 1006.4 1006.6 0.9
13 19.06 ЮВ 4 >70 км 10/0
[]
+25.3 +13.5 48 +27 +33 жарко 1006.7 1006.9
14 19.06 ЮЗ 5-8
{8}
23 км 8/0
[]
+26.7 +12.8 42 +28 +32 жарко 1006.3 1006.5
15 19.06 ЮЗ 3 >70 км 10/0 2000 м
[]
+25.3 +14.8 52 +28 +32 жарко 1006.2 1006.4
16 19.06 ЮЗ 3 >70 км 10/10 1500 м
[]
+24.7 +13.0 48 +27 +27 жарко 1006.0 1006.2
17 19.06 З 3 >70 км 10/0
[]
+23.5 +15.2 60 +26 +28 жарко 1005.7 1005.9
18 19.06 З 4 65 км 9/0
[]
+23.5 +15.3 60 +26 +27 жарко 1006.4 1006.6 +19.0 +26.7
19 19.06 СЗ 3 50 км 9/0
[]
+21.3 +16.9 76 +25 +25 комфорт 1006.2 1006.4
20 19.06 СВ 1 40 км 10/0
[]
+19.8 +17.2 85 +23 +23 комфорт 1006.2 1006.4
21 19.06 Ю 3 9000 м дождь {ливн. осадки} 10/10 800 м
[]
+16.8 +15.8 94 +17 +17 1007.3 1007.5 6
22 19.06 Ю 2 40 км в посл. час дождь {морось} 10/10 1500 м
[]
+16.5 +15.8 96 +17 +17 1007.0 1007.2
23 19.06 Ю 2 30 км 10/0
[]
+16.2 +15.7 97 +16 +16 1006.9 1007.1
00 20.06 Ю 2 28 км {ливн. осадки, дождь} 9/9 1500 м
[]
+16.5 +15.9 96 +17 +17 1007.0 1007.2 2
01 20.06 ЮЗ 2 30 км 10/10 1200 м
[]
+16.6 +15.5 93 +17 +17 1007.0 1007.2
02 20.06 ЮЗ 2 12 км слаб. морось {дождь} 10/10 840 м
[]
+16.7 +15.6 93 +17 +17 1006.9 1007.1
03 20.06 З 3 5000 м слаб. дождь {морось} 10/10 240 м
[]
+16.5 +15.8 96 +16 +16 1006.9 1007.1 0.8
04 20.06 З 4 5000 м в посл. час дождь {морось} 10/10 240 м
[]
+16.0 +14.9 93 +15 +15 1007.4 1007.6
05 20.06 ЮЗ 3 10 км 10/10 500 м
[]
+16.1 +14.4 90 +16 +16 1007.9 1008.1
06 20.06 ЮЗ 3 9000 м в посл. час морось {дождь} 9/9 300 м
[]
+16.1 +14.6 91 +16 +16 1008.5 1008.7 +15.9 +23.4 8
07 20.06 ЮЗ 3 14 км 10/10 600 м
[]
+16.3 +14.3 88 +16 +16 1009.0 1009.2
08 20.06 З 4 27 км 9/9 450 м
[]
+17.3 +14.0 81 +17 +18 1009.4 1009.6
09 20.06 З 3 30 км 10/10 480 м
[]
+17.9 +14.2 79 +18 +18 1009.7 1009.9
10 20.06 З 3 40 км 10/10 540 м
[]
+17.6 +13.5 77 +18 +18 1010.2 1010.4
11 20.06 З 2 45 км в посл. час дождь {морось} 10/10 540 м
[]
+18.0 +13.9 77 +19 +19 1010.6 1010.8
12 20.06 СВ 1 6000 м дождь {морось} 9/9 400 м
[]
+17.0 +15.0 88 +18 +20 1010.7 1010.9 2
13 20.06 С 2 40 км в посл. час дождь {ливн. осадки} 5/5 240 м
[]
+18.4 +15.2 82 +19 +27 1010.5 1010.7
14 20.06 СЗ 5 8000 м слаб. дождь 10/10 300 м
[]
+16.4 +14.7 90 +15 +15 1010.9 1011.1
15 20.06 СЗ 4 30 км слаб. дождь 9/9 360 м
[]
+16.5 +13.7 84 +16 +16 1011.2 1011.4 13
16 20.06 СЗ 3 35 км в посл. час дождь {морось} 9/9 960 м
[]
+16.9 +14.1 84 +17 +17 1011.8 1012.0
17 20.06 З 4 60 км в посл. час дождь 9/9 450 м
[]
+16.1 +12.9 81 +15 +16 1012.4 1012.6
18 20.06 СЗ 4 >70 км {ливн. осадки, дождь} 5/5 300 м
[]
+16.1 +11.8 76 +15 +16 1012.6 1012.8 +15.5 +18.9 0.1
19 20.06 СЗ 2-3
{6}
>70 км 3/0
[]
+15.8 +11.8 77 +16 +16 1013.3 1013.5
20 20.06 З 1-2
{2}
50 км 3/0
[]
+14.2 +12.2 88 +15 +15 1014.0 1014.2
21 20.06 ЮЗ 1 15 км 8/8 1050 м
[]
+13.6 +12.6 94 +14 +14 1014.7 1014.9
22 20.06 Ю 1-1
{1}
6000 м дымка 3/3 1170 м
[]
+13.1 +12.7 97 +13 +13 1014.9 1015.1
23 20.06 З 1-1
{1}
10 км в посл. час туман {дымка} 9/0 2000 м
[]
+11.9 +11.6 98 +12 +12 1015.0 1015.2
00 21.06 ЮЗ 1 11 км в посл. час туман {дымка} ясно +12.3 +12.0 98 +12 +12 1015.0 1015.2
01 21.06 ЮЗ 1-1
{1}
9000 м в посл. час туман {дымка} 1/1 1500 м
[]
+10.8 +10.4 97 +10 +10 1015.0 1015.2
02 21.06 Ю 1-1
{2}
5000 м в посл. час туман {дымка} ясно +11.6 +11.4 99 +11 +11 1015.4 1015.6
03 21.06 Ю 2-3
{3}
18 км в посл. час туман {дымка} ясно +12.4 +12.0 97 +11 +11 1015.5 1015.7
04 21.06 Ю 2-2
{3}
16 км ясно +12.7 +11.9 95 +12 +12 1015.7 1015.9
05 21.06 Ю 3-4
{5}
24 км 1/0
[]
+14.2 +11.8 85 +13 +14 1015.9 1016.1
06 21.06 ЮЗ 3 29 км {туман, дымка} ясно +15.5 +12.1 80 +15 +18 1016.2 1016.4 +9.6 +16.3
07 21.06 ЮЗ 3-6
{6}
35 км ясно +16.7 +11.8 73 +16 +22 1016.6 1016.8
08 21.06 ЮЗ 3-5
{7}
40 км 4/4 660 м
[]
+17.6 +11.8 69 +18 +22 1017.0 1017.2
09 21.06 З 3 35 км 4/4 870 м
[]
+18.3 +11.1 63 +19 +25 1017.2 1017.4
10 21.06 З 4 50 км 9/9 800 м
[]
+17.7 +11.6 67 +17 +18 1017.6 1017.8
11 21.06 З 5 45 км в посл. час морось 9/9 1500 м
[]
+18.7 +10.6 59 +19 +20 1018.0 1018.2
12 21.06 З 4 65 км слаб. дождь {морось} 10/0 2000 м
[]
+16.7 +12.0 74 +16 +22 1018.5 1018.7 0.0
13 21.06 З 3 >70 км в посл. час дождь {морось} 10/0 2000 м
[]
+18.1 +10.0 59 +18 +25 1018.8 1019.0
14 21.06 СЗ 4 >70 км 10/10 960 м
[]
+17.7 +10.3 62 +17 +17 1018.9 1019.1
15 21.06 СЗ 3 >70 км в посл. час дождь {морось} 9/9 1300 м
[]
+17.4 +10.0 62 +17 +18 1019.3 1019.5 0.0
16 21.06 СЗ 5 >70 км 9/9 1080 м
[]
+17.3 +8.5 56 +17 +17 1019.6 1019.8
17 21.06 СЗ 4 >70 км 4/4 1440 м
[]
+17.3 +10.1 63 +17 +18 1020.1 1020.3
18 21.06 СЗ 4 60 км {дождь, морось} 9/9 600 м
[]
+16.3 +10.8 70 +16 +16 1020.6 1020.8 +15.4 +19.3
19 21.06 С 3 60 км 10/10 1500 м
[]
+16.2 +10.6 69 +16 +16 1021.1 1021.3
20 21.06 СЗ 2-2
{4}
>70 км 5/5 1500 м
[]
+14.4 +9.5 72 +14 +14 1021.6 1021.8
21 21.06 СЗ 2-2
{6}
65 км ясно +12.0 +8.5 79 +11 +11 1022.1 1022.3
22 21.06 СЗ 1-1
{2}
45 км ясно +10.1 +9.1 94 +10 +10 1022.6 1022.8
23 21.06 З 1-1
{1}
45 км ясно +10.3 +8.8 90 +10 +10 1023.2 1023.4
00 22.06 З 1 10 км ясно +9.0 +8.6 97 +8 +8 1023.5 1023.7
01 22.06 В 1-2
{2}
100 м туман {дымка} ясно +7.7 +7.3 97 +7 +7 1023.7 1023.9
02 22.06 штиль 0-1
{1}
23 км в посл. час туман {дымка} ясно +8.4 +8.2 99 +7 +7 1023.9 1024.1
03 22.06 С 1-1
{2}
30 км в посл. час туман {дымка} ясно +7.7 +7.3 97 +7 +7 1023.9 1024.1
04 22.06 С 1-1
{2}
50 км в посл. час туман {дымка} ясно +7.9 +7.0 94 +7 +7 1024.1 1024.3
05 22.06 С 1-1
{1}
35 км в посл. час туман {дымка} ясно +10.3 +8.6 89 +10 +11 1024.1 1024.3
06 22.06 С 1 45 км {туман, дымка} ясно +13.9 +9.9 77 +14 +18 1024.3 1024.5 +6.9 +16.4
07 22.06 СВ 3-4
{4}
>70 км ясно +15.4 +8.7 64 +15 +20 1024.7 1024.9
08 22.06 СВ 3-4
{5}
>70 км 4/4 800 м
[]
+15.8 +8.8 63 +15 +20 1024.7 1024.9
09 22.06 СВ 3 60 км 3/0
[]
+17.2 +9.5 61 +17 +26 1024.6 1024.8
10 22.06 В 3-6
{6}
>70 км 6/0
[]
+18.2 +9.1 55 +19 +27 1024.4 1024.6
11 22.06 СВ 3 >70 км 6/6 1300 м
[]
+18.0 +8.8 55 +18 +24 1024.3 1024.5
12 22.06 В 3 60 км 9/9 1500 м
[]
+19.6 +9.0 50 +21 +22 комфорт 1024.0 1024.2
13 22.06 В 3 >70 км 9/9 1300 м
[]
+20.0 +9.7 51 +22 +23 комфорт 1023.2 1023.4
14 22.06 СВ 3 60 км 9/9 1300 м
[]
+20.0 +9.9 52 +22 +23 комфорт 1023.1 1023.3
15 22.06 СВ 5 60 км 9/9 1410 м
[]
+18.7 +11.0 61 +19 +20 1022.9 1023.1
16 22.06 СВ 6-8
{9}
65 км ясно +19.3 +11.4 60 +20 +22 1022.6 1022.8
17 22.06 СВ 5-7
{9}
65 км 1/1 1500 м
[]
+18.6 +10.4 59 +19 +20 1022.4 1022.6
18 22.06 СВ 5 >70 км 4/0
[]
+17.8 +10.4 62 +17 +18 1022.0 1022.2 +14.0 +20.7
19 22.06 СВ 4 >70 км 10/0
[]
+16.8 +10.9 68 +16 +16 1022.0 1022.2
20 22.06 СВ 3 >70 км 5/0
[]
+15.2 +10.8 75 +15 +15 1022.1 1022.3
21 22.06 СВ 3-4
{7}
50 км ясно +14.0 +11.5 85 +13 +13 1022.3 1022.5
22 22.06 СВ 3-4
{4}
40 км 4/4 1500 м
[]
+13.6 +12.0 90 +12 +12 1022.3 1022.5
23 22.06 СВ 3-4
{4}
50 км 5/5 1500 м
[]
+14.8 +12.4 86 +14 +14 1022.4 1022.6
00 23.06 СВ 3 55 км 8/8 1500 м
[]
+14.4 +11.6 83 +13 +13 1022.3 1022.5
01 23.06 В 3-4
{5}
65 км 4/0 2000 м
[]
+13.1 +10.0 81 +12 +12 1022.1 1022.3
02 23.06 В 3-4
{4}
>70 км ясно +12.8 +9.3 79 +11 +11 1022.1 1022.3
03 23.06 В 3 >70 км 5/0 2000 м
[]
+12.7 +9.4 80 +11 +11 1022.2 1022.4
04 23.06 СВ 3-4
{4}
>70 км 1/0 2000 м
[]
+12.7 +10.1 84 +11 +11 1022.1 1022.3
05 23.06 В 3-3
{4}
55 км ясно +14.4 +11.0 80 +13 +15 1022.1 1022.3
06 23.06 В 5 50 км ясно +16.2 +11.8 75 +15 +17 1021.7 1021.9 +12.2 +17.9
07 23.06 В 6-8
{9}
55 км 3/3 1500 м
[]
+17.5 +12.1 71 +17 +18 1021.6 1021.8
08 23.06 В 5-8
{8}
60 км ясно +19.1 +12.9 67 +20 +25 1021.7 1021.9
09 23.06 В 6 65 км ясно +21.2 +14.3 65 +24 +29 комфорт 1021.6 1021.8
10 23.06 В 5-7
{8}
>70 км 3/0
[]
+22.5 +14.6 61 +26 +33 жарко 1021.4 1021.6
11 23.06 В 4-6
{8}
65 км ясно +23.3 +14.3 57 +27 +38 душно 1021.3 1021.5
12 23.06 В 6-8
{9}
55 км ясно +24.6 +14.9 55 +27 +34 жарко 1020.9 1021.1
13 23.06 В 5-8
{8}
60 км ясно +25.5 +15.0 52 +28 +36 жарко 1020.7 1020.9
14 23.06 В 4 >70 км 4/0
[]
+26.1 +14.6 49 +29 +35 жарко 1020.6 1020.8
15 23.06 В 5 >70 км 5/0
[]
+26.6 +14.4 47 +29 +33 жарко 1020.3 1020.5
16 23.06 В 5-8
{8}
>70 км 4/0
[]
+26.7 +12.6 42 +28 +31 жарко 1020.0 1020.2
17 23.06 В 4 >70 км 8/0
[]
+26.3 +13.9 46 +28 +30 жарко 1019.7 1019.9
18 23.06 В 3 >70 км 10/0
[]
+24.9 +15.8 57 +28 +29 жарко 1019.9 1020.1 +16.2 +27.0
19 23.06 В 3 >70 км 10/0
[]
+22.9 +15.2 62 +27 +27 душно 1019.8 1020.0
20 23.06 В 3 55 км 6/0
[]
+20.0 +14.8 72 +23 +23 комфорт 1020.3 1020.5
21 23.06 В 3 29 км 10/0
[]
+18.1 +13.7 75 +18 +18 1020.6 1020.8
22 23.06 В 3-4
{4}
60 км 10/0
[]
+16.6 +13.5 82 +16 +16 1021.0 1021.2
23 23.06 В 3 55 км 10/0
[]
+16.8 +13.5 81 +17 +17 1021.3 1021.5
00 24.06 В 4 55 км 10/0
[]
+18.0 +13.6 75 +18 +18 1021.5 1021.7
01 24.06 В 5 55 км 10/0
[]
+17.9 +14.1 78 +17 +17 1021.8 1022.0
02 24.06 В 5 55 км 10/0
[]
+17.5 +13.9 79 +17 +17 1021.8 1022.0
03 24.06 В 5 65 км 10/0
[]
+17.3 +13.1 76 +17 +17 1021.4 1021.6
04 24.06 В 5-7
{8}
60 км 10/0
[]
+17.1 +12.8 76 +16 +17 1021.3 1021.5
05 24.06 В 6-9
{9}
>70 км 10/0
[]
+18.0 +12.8 72 +17 +18 1021.2 1021.4
06 24.06 В 6 >70 км 10/0
[]
+19.2 +13.1 68 +20 +21 1021.2 1021.4 +16.3 +24.9
07 24.06 В 6 65 км 8/0
[]
+21.0 +13.4 62 +24 +25 комфорт 1021.4 1021.6
08 24.06 н/о
09 24.06 В 7 65 км 6/0
[]
+24.5 +14.6 54 +27 +30 жарко 1021.1 1021.3
10 24.06 В 7 >70 км 6/0
[]
+25.9 +15.2 52 +29 +32 душно 1021.0 1021.2
11 24.06 В 8-11
{11}
65 км н/о +27.6 +16.5 51 +31 +31 душно 1020.8 1021.0
12 24.06 В 8 >70 км ясно +28.1 +15.1 45 +31 +34 душно 1020.4 1020.6
13 24.06 ЮВ 7-10
{12}
>70 км 1/0
[]
+28.6 +14.3 42 +31 +35 жарко 1020.0 1020.2
14 24.06 В 7 >70 км 9/0
[]
+28.3 +13.6 40 +30 +32 жарко 1019.9 1020.1
15 24.06 В 7 55 км 10/0
[]
+28.8 +15.4 44 +32 +33 душно 1019.7 1019.9
16 24.06 В 6-7
{10}
60 км 10/0
[]
+27.9 +15.3 46 +31 +32 душно 1019.7 1019.9
17 24.06 В 5 >70 км 10/0
[]
+27.9 +14.5 44 +30 +31 жарко 1019.3 1019.5
18 24.06 В 5 >70 км 10/0
[]
+27.1 +15.7 50 +30 +31 душно 1019.1 1019.3
19 24.06 В 3 55 км 10/0
[]
+24.7 +16.2 59 +28 +28 душно 1019.1 1019.3
20 24.06 В 4 >70 км 9/0
[]
+22.6 +15.8 65 +27 +27 душно 1019.1 1019.3
21 24.06 В 4 65 км 9/0
[]
+22.9 +14.9 61 +27 +27 душно 1019.5 1019.7
22 24.06 В 4 60 км 10/0
[]
+22.0 +14.3 62 +25 +25 комфорт 1019.8 1020.0
23 24.06 В 3 65 км 10/0
[]
+20.5 +14.1 67 +23 +23 комфорт 1019.7 1019.9
00 25.06 ЮВ 2 60 км 10/0
[]
+20.5 +13.5 64 +23 +23 комфорт 1019.5 1019.7
01 25.06 ЮВ 2 >70 км 10/0
[]
+19.7 +13.7 68 +22 +22 комфорт 1019.1 1019.3
02 25.06 ЮВ 2 60 км 10/0
[]
+18.2 +13.6 75 +19 +19 1018.7 1018.9
03 25.06 ЮВ 2 >70 км 9/0
[]
+18.5 +12.4 68 +20 +20 1018.4 1018.6
04 25.06 В 3 55 км 9/0
[]
+17.9 +13.3 74 +18 +18 1018.4 1018.6
05 25.06 В 3 >70 км 9/0
[]
+19.6 +13.7 69 +22 +22 комфорт 1018.5 1018.7
06 25.06 ЮВ 3 60 км 9/0
[]
+21.3 +14.0 63 +24 +25 комфорт 1018.5 1018.7 +17.8 +27.1
07 25.06 ЮВ 4 >70 км 9/0
[]
+22.9 +13.2 54 +26 +28 жарко 1018.6 1018.8
08 25.06 ЮВ 3-5
{5}
50 км 10/0
[]
+24.4 +15.2 56 +27 +31 жарко 1018.5 1018.7
09 25.06 ЮВ 4 60 км 10/0
[]
+26.7 +16.0 52 +30 +34 душно 1018.4 1018.6
10 25.06 ЮВ 4-6
{8}
60 км 3/0
[]
+28.6 +17.0 49 +32 +41 душно 1017.9 1018.1
11 25.06 ЮВ 6-8
{8}
65 км 1/0
[]
+30.5 +17.6 46 +35 +41 очень
душно
1017.6 1017.8
12 25.06 ЮВ 6-9
{9}
55 км ясно +31.0 +17.1 43 +35 +41 очень
душно
1017.2 1017.4
13 25.06 ЮВ 6 55 км 9/0
[]
+32.2 +16.2 38 +35 +38 очень
душно
1016.9 1017.1

 

Местоположение метеостанции Эмден (Германия): широта 53.38 долгота 7.23 высота над уровнем моря 5 м.

В архиве по умолчанию представлена погода в Эмдене за последнюю неделю. Архивные данные за месяц целиком и за предыдущие месяцы, начиная с января 2011 года, Вы можете получить, выбрав интересующий диапазон дат из раскрывающегося списка и нажав кнопку "Ввод!".


*Определитесь, кто Вы:
робот инопланетянин человек

Внимание! Время в таблицах - всемирное. Для получения местного времени необходимо прибавить поправку, которая равна 1 ч.

Смотрите также архив погоды в соседних городах и на ближайших метеорологических станциях:

Погода в Ниев-Берта (Нидерланды) (21 км)
Погода на Базе ВВС Wittmundhaven (Германия) (35 км)
Погода на Острове Норденей (Германия) (38 км)
Погода в Гронингене (Нидерланды) (51 км)
Погода во Фризойте-Альтенойте (Германия) (58 км)
Погода в Хуибертгате (Нидерланды) (59 км)
Погода в Лоуверсоге (Нидерланды) (68 км)
Погода в Меппене (Германия) (74 км)
Погода на Маяке Alte Weser (Германия) (81 км)
Погода в Хогевене (Нидерланды) (85 км)

Пояснения к столбцам:

Ветер - указаны скорость ветра в м/с - средняя за 10 мин, порывы в срок и между сроками (в фигурных скобках) и направление, откуда дует ветер: С - северный, СВ - северо-восточный, В - восточный, ЮВ - юго-восточный, Ю - южный, ЮЗ - юго-западный, З - западный, СЗ - северо-западный.
Видимость - горизонтальная дальность видимости в метрах или километрах. При видимости от 1 до 10 км при отсутствии осадков обычно наблюдается дымка, при ухудшении видимости до 1 км и менее - туман. В сухую погоду видимость может ухудшаться дымом, пылью или мглою.
Явления - указаны атмосферные явления, наблюдавшиеся в срок или в последний час перед сроком; фигурными скобками обозначены явления, наблюдавшиеся между сроками (за 1-3 часа до срока); квадратными скобками обозначены град или гололедные отложения с указанием их диаметра в мм.
Облачность - указаны через наклонную черту общая и нижняя облачность в баллах и высота нижней границы облаков в метрах; квадратными скобками обозначены формы облаков: Ci - перистые, Cs - перисто-слоистые, Cc - перисто-кучевые, Ac - высококучевые, As - высокослоистые, Sc - слоисто-кучевые, Ns - слоисто-дождевые, Cu - кучевые, Cb - кучево-дождевые. Подробнее классификацию облаков см. в Атласе облаков (PDF).
T - Температура воздуха - температура, измеренная на высоте 2 м над землей.
Td - Температура точки росы - температура, при понижении до которой содержащийся в воздухе водяной пар достигнет насыщения.
f - Относительная влажность воздуха - влажноcть воздуха, измеренная на высоте 2 м над землей.
Te - Эффективная температура - температура, которую ощущает одетый по сезону человек в тени. Характеристика душности погоды. При расчете учитывается влияние влажности воздуха и скорости ветра на теплоощущения человека.
Tes - Эффективная температура на солнце - температура, которую ощущает человек, с поправкой на солнечный нагрев. Характеристика знойности погоды. Зависит от высоты солнца над горизонтом, облачности и скорости ветра. Ночью, в пасмурную погоду, а также при ветре 12 м/с и более поправка равна нулю.
P - Атмосферное давление - приведенное к уровню моря атмосферное давление.
Po - Атмосферное давление - измеренное на уровне метеостанции атмосферное давление.
Tmin - Минимальная температура - минимум температуры воздуха на высоте 2 м над землей.
Tmax - Максимальная температура - максимум температуры воздуха на высоте 2 м над землей.
R - Количество осадков - Количество выпавших осадков за период времени, мм. При наведении курсора мыши на число - период времени, за который выпало указанное количество осадков.
R24 - Количество осадков - Количество выпавших осадков за 24 часа, мм.
S - Снежный покров - Высота снежного покрова, см. При наведении курсора мыши на число - состояние снежного покрова и степень покрытия местности в баллах.